Location: ???????
(55.4362°N, 38.1183°E)
Time: 03:02:53
(UTC+00:00)

N. Korean satellite - Pass Details

Date: 06 October 2021
Orbit: 450 x 495 km, 97.3° (Epoch: 15 October)

Event Time Altitude Azimuth Distance (km) Brightness Sun altitude
Rises 01:27:31 0° 31° (NNE) 2,563 11.0 -19.3°
Reaches altitude 10° 01:31:08 10° 69° (ENE) 1,686 10.6 -18.8°
Maximum altitude 01:32:07 11° 85° (E) 1,631 10.4 -18.7°
Drops below altitude 10° 01:33:07 10° 101° (ESE) 1,688 10.2 -18.6°
Sets 01:36:44 0° 140° (SE) 2,570 10.5 -18.1°
